TimeEST,TemperatureF,Dew PointF,Humidity,Sea Level PressureIn,VisibilityMPH,Wind Direction,Wind SpeedMPH,Gust SpeedMPH,PrecipitationIn,Events,Conditions,WindDirDegrees,DateUTC
12:56 AM,52.0,48.0,86,30.32,10.0,Calm,Calm,-,N/A,,Mostly Cloudy,0,2012-12-01 05:56:00
1:56 AM,53.1,50.0,89,30.31,10.0,Calm,Calm,-,N/A,,Mostly Cloudy,0,2012-12-01 06:56:00
2:56 AM,51.1,48.0,89,30.30,10.0,Calm,Calm,-,N/A,,Clear,0,2012-12-01 07:56:00
3:56 AM,48.0,46.0,93,30.30,5.0,North,3.5,-,N/A,,Clear,350,2012-12-01 08:56:00
4:56 AM,48.9,46.0,90,30.30,9.0,North,3.5,-,N/A,,Clear,10,2012-12-01 09:56:00
5:56 AM,50.0,46.9,89,30.32,10.0,Calm,Calm,-,N/A,,Scattered Clouds,0,2012-12-01 10:56:00
6:56 AM,50.0,46.9,89,30.33,10.0,Calm,Calm,-,N/A,,Mostly Cloudy,0,2012-12-01 11:56:00
7:56 AM,52.0,48.9,89,30.34,10.0,Calm,Calm,-,N/A,,Partly Cloudy,0,2012-12-01 12:56:00
8:56 AM,59.0,52.0,78,30.36,10.0,NE,3.5,-,N/A,,Clear,50,2012-12-01 13:56:00
9:56 AM,63.0,54.0,72,30.38,10.0,East,4.6,-,N/A,,Clear,100,2012-12-01 14:56:00
10:56 AM,68.0,55.0,63,30.38,10.0,East,6.9,-,N/A,,Partly Cloudy,90,2012-12-01 15:56:00
11:56 AM,69.1,54.0,58,30.36,10.0,ESE,9.2,17.3,N/A,,Mostly Cloudy,110,2012-12-01 16:56:00
12:56 PM,70.0,53.1,55,30.33,10.0,East,12.7,17.3,N/A,,Scattered Clouds,90,2012-12-01 17:56:00
1:56 PM,70.0,53.1,55,30.32,10.0,East,11.5,-,N/A,,Clear,100,2012-12-01 18:56:00
2:56 PM,68.0,54.0,61,30.32,10.0,ESE,9.2,-,N/A,,Mostly Cloudy,110,2012-12-01 19:56:00
3:56 PM,66.9,54.0,63,30.32,10.0,ESE,8.1,-,N/A,,Mostly Cloudy,110,2012-12-01 20:56:00
4:56 PM,66.0,54.0,65,30.32,10.0,ESE,4.6,-,N/A,,Overcast,110,2012-12-01 21:56:00
5:56 PM,64.0,54.0,70,30.33,10.0,East,4.6,-,N/A,,Overcast,80,2012-12-01 22:56:00
6:56 PM,62.1,54.0,75,30.34,10.0,ENE,3.5,-,N/A,,Overcast,70,2012-12-01 23:56:00
7:56 PM,57.9,52.0,81,30.34,10.0,ENE,4.6,-,N/A,,Overcast,60,2012-12-02 00:56:00
8:56 PM,60.1,53.1,78,30.35,10.0,ENE,5.8,-,N/A,,Mostly Cloudy,70,2012-12-02 01:56:00
9:56 PM,60.1,53.1,78,30.34,10.0,East,5.8,-,N/A,,Overcast,80,2012-12-02 02:56:00
10:56 PM,61.0,53.1,75,30.34,10.0,East,6.9,-,N/A,,Scattered Clouds,80,2012-12-02 03:56:00
11:56 PM,60.1,53.1,78,30.34,10.0,East,5.8,-,N/A,,Clear,80,2012-12-02 04:56:00